www.pogodaiklimat.ru

Погода и климат >> Архив погоды >> Великобритания >> Абердин


АРХИВ ПОГОДЫ в Абердине

Время (UTC), дата Ветер
(напр.,м/с)
 
Видим.   Явления Облачность Т
(С)
Тd
(С)
f
(%)
Тe
(С)
Тes
(С)
Комфортность P
(гПа)
Po
(гПа)
Тmin
(С)
Tmax
(С)
R
(мм)
R24
(мм)
S
(см)
10 16.05 ЮВ 6 22 км н/о +12.3 +6.4 67 +10 +10 тепло 1024.9 1017.0
11 16.05 Ю 7 30 км н/о +12.8 +5.9 63 +10 +10 по сезону 1024.7 1016.8
12 16.05 Ю 8 50 км н/о +13.2 +6.6 64 +11 +11 по сезону 1024.4 1016.5
13 16.05 Ю 7 35 км н/о +13.7 +5.7 58 +12 +12 тепло 1024.3 1016.4
14 16.05 ЮВ 7 50 км н/о +13.5 +6.1 61 +11 +11 тепло 1023.9 1016.0
15 16.05 ЮВ 6 40 км н/о +12.6 +6.8 68 +10 +10 по сезону 1023.7 1015.8
16 16.05 ЮВ 6 35 км н/о +12.6 +6.8 68 +10 +10 тепло 1023.3 1015.4
17 16.05 ЮВ 7 29 км н/о +11.8 +6.1 68 +9 +9 тепло 1023.1 1015.2
18 16.05 ЮВ 6 50 км н/о +10.9 +6.1 72 +8 +8 по сезону 1022.9 1015.0 +14.2
19 16.05 Ю 7 45 км н/о +10.1 +6.0 76 +7 +7 тепло 1023.0 1015.0
20 16.05 Ю 5 40 км н/о +9.4 +6.4 82 +6 +6 по сезону 1023.0 1015.0
21 16.05 Ю 3 30 км н/о +8.6 +6.8 88 +6 +6 по сезону 1023.2 1015.2
22 16.05 Ю 2 26 км н/о +7.9 +6.7 92 +6 +6 тепло 1023.2 1015.1
23 16.05 СЗ 1 17 км н/о +7.3 +6.3 93 +6 +6 тепло 1023.1 1015.0
00 17.05 С 1 8000 м дымка н/о +6.8 +6.0 95 +7 +7 по сезону 1022.8 1014.7
01 17.05 СВ 1 100 м туман н/о +6.7 +6.4 98 +5 +5 тепло 1022.6 1014.5
02 17.05 С 2 200 м туман н/о +7.1 +7.0 99 +5 +5 тепло 1022.2 1014.1
03 17.05 С 2 5000 м в посл. час туман н/о +5.9 +5.8 99 +4 +4 по сезону 1021.8 1013.7
04 17.05 С 2 11 км дымка н/о +6.1 +6.0 99 +4 +4 тепло 1021.6 1013.5
05 17.05 С 2 8000 м дымка н/о +6.7 +6.5 99 +5 +5 по сезону 1021.2 1013.1
06 17.05 С 2 29 км н/о +8.7 +8.0 95 +7 +7 по сезону 1020.9 1012.9 +5.7
07 17.05 С 2 30 км н/о +9.8 +7.3 84 +8 +8 тепло 1020.6 1012.6
08 17.05 С 3 35 км н/о +11.6 +7.6 76 +10 +10 тепло 1020.2 1012.2
09 17.05 СВ 3 40 км н/о +14.4 +7.0 61 +14 +14 тепло 1019.5 1011.7
10 17.05 СВ 6 35 км н/о +15.6 +2.6 42 +14 +14 тепло 1018.9 1011.1
11 17.05 СВ 4 45 км н/о +15.4 +7.5 59 +14 +14 тепло 1018.5 1010.8
12 17.05 В 6 50 км н/о +15.7 +8.0 60 +14 +14 тепло 1018.0 1010.2
13 17.05 В 6 29 км н/о +14.6 +8.3 66 +13 +13 тепло 1017.9 1010.1
14 17.05 В 6 21 км н/о +14.0 +6.4 60 +12 +12 тепло 1017.7 1009.8
15 17.05 В 6 40 км н/о +14.3 +6.4 59 +13 +13 тепло 1017.3 1009.5
16 17.05 В 6 30 км н/о +13.2 +5.6 60 +11 +11 тепло 1016.9 1009.1
17 17.05 В 7 35 км н/о +12.6 +5.9 64 +10 +10 тепло 1016.5 1008.6
18 17.05 В 4 17 км н/о +12.4 +6.7 68 +11 +11 тепло 1016.2 1008.3 +16.6
19 17.05 В 5 20 км слаб. ливневой дождь н/о +10.8 +7.8 82 +8 +8 тепло 1016.3 1008.4
20 17.05 СВ 3 18 км слаб. дождь н/о +9.8 +8.3 90 +7 +7 тепло 1016.4 1008.5
21 17.05 В 4 5000 м слаб. дождь н/о +9.5 +8.7 95 +6 +6 по сезону 1016.2 1008.3
22 17.05 В 3 11 км слаб. дождь н/о +9.4 +8.7 95 +7 +7 тепло 1015.7 1007.8
23 17.05 СВ 3 10 км дождь н/о +9.5 +8.7 95 +7 +7 тепло 1015.4 1007.4
00 18.05 С 3 13 км дождь н/о +9.5 +8.6 94 +7 +7 по сезону 1014.8 1006.9 3
01 18.05 С 2 15 км слаб. дождь н/о +9.5 +8.5 93 +8 +8 тепло 1014.2 1006.3
02 18.05 С 2 22 км слаб. дождь н/о +9.5 +8.6 94 +8 +8 тепло 1013.6 1005.7
03 18.05 С 3 18 км дождь н/о +9.5 +8.5 93 +7 +7 по сезону 1012.7 1004.8
04 18.05 С 2 13 км дождь н/о +9.3 +8.3 93 +7 +7 тепло 1011.8 1003.9
05 18.05 С 3 12 км слаб. дождь н/о +9.4 +8.6 95 +7 +7 тепло 1011.2 1003.3
06 18.05 С 4 12 км дождь н/о +9.6 +8.8 95 +7 +7 по сезону 1010.7 1002.8 +9.2 9
07 18.05 СВ 6 12 км слаб. дождь н/о +9.4 +8.7 95 +6 +6 тепло 1010.4 1002.5
08 18.05 СВ 6 12 км дождь н/о +9.5 +8.8 95 +6 +6 по сезону 1010.0 1002.1
09 18.05 СВ 5 11 км дождь н/о +9.4 +8.7 95 +6 +6 по сезону 1009.8 1001.9
10 18.05 В 5 12 км слаб. дождь н/о +9.8 +9.2 96 +6 +6 по сезону 1009.6 1001.8
11 18.05 СВ 5 7000 м слаб. дождь н/о +9.8 +9.4 97 +7 +7 по сезону 1009.3 1001.4
12 18.05 В 4 4200 м слаб. дождь н/о +10.1 +9.7 97 +7 +7 прохладно 1009.0 1001.1 6
13 18.05 В 4 6000 м слаб. морось с дождем н/о +10.3 +10.0 98 +8 +8 тепло 1008.7 1000.8
14 18.05 В 3 13 км в посл. час дождь н/о +9.9 +9.6 98 +7 +7 по сезону 1008.6 1000.7
15 18.05 В 3 3300 м в посл. час дождь н/о +10.2 +9.8 97 +8 +8 по сезону 1008.4 1000.6
16 18.05 ЮВ 3 1100 м в посл. час дождь н/о +10.1 +9.8 98 +8 +8 тепло 1008.4 1000.6
17 18.05 ЮВ 2 6000 м дымка н/о +10.2 +9.9 98 +8 +8 по сезону 1008.4 1000.5
18 18.05 ЮВ 4 8000 м дымка н/о +10.1 +9.8 98 +7 +7 по сезону 1008.6 1000.7 +10.6 7
19 18.05 ЮВ 3 8000 м дымка н/о +10.0 +9.5 97 +8 +8 тепло 1008.7 1000.8
20 18.05 ЮВ 2 15 км н/о +10.0 +9.4 96 +8 +8 тепло 1008.9 1001.0
21 18.05 В 2 9000 м в посл. час дождь н/о +9.9 +9.3 96 +9 +9 по сезону 1009.1 1001.3
22 18.05 В 2 4400 м дымка н/о +9.6 +9.3 98 +8 +8 тепло 1009.0 1001.1
23 18.05 В 2 1500 м слаб. морось с дождем н/о +9.7 +9.4 98 +8 +8 тепло 1009.0 1001.1
00 19.05 В 2 900 м слаб. морось н/о +9.5 +9.3 99 +8 +8 тепло 1008.7 1000.8 0.4
01 19.05 В 2 600 м туман н/о +9.4 +9.3 99 +7 +7 тепло 1008.5 1000.6
02 19.05 В 2 4000 м морось н/о +9.3 +9.2 99 +7 +7 тепло 1008.3 1000.4
03 19.05 В 1 5000 м слаб. ливневой дождь н/о +9.3 +9.2 99 +8 +8 по сезону 1008.3 1000.4
04 19.05 В 1 800 м туман н/о +9.3 +9.3 100 +8 +8 тепло 1008.3 1000.4
05 19.05 В 1 300 м туман н/о +9.4 +9.3 99 +9 +9 тепло 1008.4 1000.5
06 19.05 ЮВ 1 3100 м в посл. час дождь н/о +9.5 +9.4 99 +10 +10 тепло 1008.3 1000.4 +9.2 2
07 19.05 В 2 2900 м дымка н/о +9.8 +9.8 100 +8 +8 тепло 1008.6 1000.7
08 19.05 ЮВ 1 17 км н/о +10.4 +10.3 99 +10 +10 тепло 1009.0 1001.1
09 19.05 ЮВ 1 30 км н/о +11.5 +10.0 90 +11 +11 тепло 1009.2 1001.3
10 19.05 Ю 3 23 км н/о +12.6 +10.7 88 +11 +11 тепло 1009.3 1001.5
11 19.05 Ю 2 21 км н/о +13.1 +10.5 84 +12 +12 тепло 1009.4 1001.6
12 19.05 ЮВ 4 24 км н/о +15.3 +11.8 80 +14 +14 тепло 1009.1 1001.4
13 19.05 ЮВ 5 30 км н/о +13.4 +10.1 80 +11 +11 тепло 1009.5 1001.7
14 19.05 ЮВ 5 30 км н/о +14.3 +10.5 78 +13 +13 тепло 1009.7 1002.0
15 19.05 ЮВ 5 30 км н/о +14.1 +9.6 74 +12 +12 тепло 1009.7 1002.0
16 19.05 Ю 5 35 км н/о +14.1 +9.8 75 +13 +13 тепло 1009.8 1002.0
17 19.05 Ю 5 30 км н/о +13.8 +10.2 79 +12 +12 тепло 1009.6 1001.9
18 19.05 Ю 6 30 км н/о +14.2 +9.8 75 +12 +12 тепло 1009.7 1001.9 +15.6
19 19.05 Ю 5 35 км н/о +13.7 +9.7 77 +12 +12 тепло 1009.9 1002.1
20 19.05 Ю 4 29 км н/о +12.2 +9.4 83 +10 +10 тепло 1010.3 1002.5
21 19.05 Ю 2 45 км н/о +11.3 +9.1 86 +10 +10 тепло 1010.7 1002.8
22 19.05 Ю 2 50 км н/о +11.5 +9.1 85 +11 +11 тепло 1011.0 1003.2
23 19.05 ЮВ 2 24 км н/о +11.1 +9.7 91 +10 +10 тепло 1011.1 1003.2
00 20.05 Ю 1 23 км н/о +11.1 +9.8 92 +11 +11 тепло 1011.2 1003.3
01 20.05 СВ 1 15 км н/о +10.7 +9.5 92 +10 +10 тепло 1011.3 1003.4
02 20.05 С 1 9000 м дым н/о +10.4 +9.4 94 +10 +10 тепло 1011.1 1003.2
03 20.05 С 1 6000 м дымка н/о +10.5 +9.7 95 +11 +11 тепло 1011.0 1003.1
04 20.05 С 1 3200 м дымка н/о +10.0 +9.4 96 +10 +10 тепло 1011.2 1003.3
05 20.05 С 1 2400 м дымка н/о +9.8 +9.3 97 +9 +9 тепло 1011.3 1003.4
06 20.05 С 1 3700 м дымка н/о +10.1 +9.6 97 +9 +9 тепло 1011.6 1003.7 +9.8
07 20.05 С 1 7000 м дымка н/о +10.8 +10.1 95 +10 +10 тепло 1012.0 1004.2
08 20.05 В 2 1600 м в посл. час туман н/о +10.6 +10.1 97 +9 +9 тепло 1012.6 1004.8
09 20.05 В 2 3200 м дымка н/о +10.9 +10.3 96 +9 +9 по сезону 1012.7 1004.8
10 20.05 ЮВ 2 5000 м дым н/о +11.4 +10.2 92 +10 +10 тепло 1012.7 1004.9
11 20.05 В 2 5000 м дым н/о +11.6 +10.2 91 +10 +10 по сезону 1012.9 1005.1
12 20.05 В 2 8000 м дым н/о +11.8 +10.1 89 +11 +11 по сезону 1013.1 1005.2
13 20.05 В 3 9000 м дым н/о +12.1 +10.0 87 +11 +11 тепло 1013.4 1005.5
14 20.05 В 3 9000 м дым н/о +12.3 +10.4 88 +11 +11 тепло 1013.5 1005.7
15 20.05 ЮВ 3 9000 м дым н/о +11.3 +9.6 89 +10 +10 по сезону 1013.7 1005.8
16 20.05 В 2 12 км н/о +12.4 +10.0 85 +11 +11 тепло 1013.7 1005.8
17 20.05 В 4 9000 м дым н/о +12.2 +9.7 85 +10 +10 тепло 1013.9 1006.0
18 20.05 ЮВ 3 8000 м дым н/о +10.5 +9.1 91 +9 +9 по сезону 1014.2 1006.3 +12.7
19 20.05 В 3 7000 м дым н/о +10.0 +8.9 93 +8 +8 тепло 1014.4 1006.5
20 20.05 В 2 6000 м дымка н/о +9.8 +8.9 94 +8 +8 тепло 1014.8 1006.9
21 20.05 В 3 5000 м дымка н/о +9.4 +8.7 95 +7 +7 по сезону 1015.3 1007.3
22 20.05 В 2 5000 м дымка н/о +9.2 +8.6 96 +7 +7 тепло 1015.5 1007.5
23 20.05 В 2 4400 м дымка н/о +9.2 +8.5 95 +7 +7 тепло 1015.6 1007.7
00 21.05 В 1 5000 м дымка н/о +9.1 +8.5 96 +8 +8 по сезону 1015.7 1007.8
01 21.05 СВ 1 1400 м дымка н/о +9.0 +8.7 98 +8 +8 тепло 1015.7 1007.7
02 21.05 СЗ 2 5000 м слаб. ливневой дождь н/о +9.0 +8.7 98 +7 +7 тепло 1015.6 1007.7
03 21.05 СЗ 2 5000 м дождь н/о +9.3 +8.9 97 +7 +7 по сезону 1015.9 1008.0
04 21.05 СЗ 4 8000 м дождь н/о +9.3 +8.6 95 +6 +6 тепло 1016.2 1008.3
05 21.05 СЗ 5 12 км слаб. дождь н/о +8.7 +7.9 95 +5 +5 по сезону 1016.6 1008.6
06 21.05 СЗ 5 18 км слаб. дождь н/о +9.0 +8.0 93 +5 +5 по сезону 1016.8 1008.9 +8.7 7
07 21.05 СЗ 5 11 км дождь н/о +9.1 +8.0 93 +6 +6 по сезону 1017.0 1009.0
08 21.05 СЗ 6 11 км слаб. дождь н/о +9.5 +8.3 92 +6 +6 по сезону 1017.4 1009.4
09 21.05 СЗ 6 22 км в посл. час дождь н/о +10.2 +8.1 87 +7 +7 по сезону 1017.5 1009.6
10 21.05 СЗ 6 50 км н/о +11.2 +7.5 78 +8 +8 по сезону 1017.5 1009.6
11 21.05 СЗ 5 50 км н/о +11.8 +7.7 76 +9 +9 по сезону 1017.7 1009.8
12 21.05 СЗ 5 50 км в посл. час дождь н/о +11.5 +6.8 73 +9 +9 по сезону 1017.7 1009.8 1
13 21.05 СЗ 7 50 км н/о +12.8 +7.0 68 +10 +10 тепло 1017.5 1009.6
14 21.05 СЗ 6 40 км н/о +13.1 +7.0 66 +11 +11 тепло 1017.6 1009.8
15 21.05 СЗ 4 12 км слаб. ливневой дождь н/о +12.3 +7.4 72 +10 +10 по сезону 1017.8 1009.9
16 21.05 СЗ 5 10 км ливневой дождь н/о +11.6 +7.7 77 +9 +9 тепло 1017.7 1009.8
17 21.05 С 3 45 км в посл. час дождь н/о +12.4 +8.5 77 +11 +11 тепло 1017.2 1009.4
18 21.05 СВ 3 50 км н/о +12.1 +7.6 74 +11 +11 по сезону 1017.3 1009.4 +13.4 3
19 21.05 Ю 3 50 км в посл. час дождь н/о +11.3 +8.3 82 +10 +10 тепло 1017.5 1009.6
20 21.05 З 1 50 км в посл. час дождь н/о +11.1 +8.8 86 +11 +11 тепло 1017.6 1009.7
21 21.05 З 4 50 км в посл. час дождь н/о +10.3 +7.8 84 +8 +8 по сезону 1017.8 1009.8
22 21.05 З 4 50 км н/о +9.7 +6.8 82 +7 +7 тепло 1017.5 1009.6
23 21.05 З 3 50 км н/о +9.1 +6.2 82 +7 +7 тепло 1017.5 1009.6
00 22.05 СЗ 4 50 км н/о +8.3 +5.3 81 +5 +5 по сезону 1017.4 1009.4 0.8
01 22.05 З 3 50 км н/о +7.4 +5.3 87 +5 +5 тепло 1016.9 1008.9
02 22.05 З 5 50 км н/о +7.6 +4.2 79 +4 +4 по сезону 1016.4 1008.4
03 22.05 З 4 50 км н/о +6.4 +3.9 84 +3 +3 прохладно 1016.2 1008.1
04 22.05 З 4 50 км н/о +6.7 +3.4 79 +3 +3 по сезону 1015.8 1007.8
05 22.05 З 6 50 км н/о +7.8 +3.7 75 +4 +4 по сезону 1015.1 1007.1
06 22.05 З 5 15 км н/о +8.2 +4.6 78 +5 +5 по сезону 1014.9 1006.9 +6.0 0.8
07 22.05 З 5 50 км н/о +9.2 +5.5 78 +6 +6 по сезону 1014.5 1006.6
08 22.05 З 6 13 км ливневой дождь н/о +8.6 +6.4 86 +5 +5 по сезону 1014.3 1006.4
09 22.05 З 6 30 км слаб. дождь н/о +9.3 +7.8 90 +6 +6 прохладно 1014.3 1006.3
10 22.05 З 6 40 км слаб. дождь н/о +9.5 +8.0 90 +6 +6 по сезону 1014.2 1006.3
11 22.05 З 6 15 км дождь н/о +9.5 +8.2 92 +6 +6 прохладно 1014.0 1006.1
12 22.05 З 5 50 км в посл. час дождь н/о +11.2 +9.3 88 +9 +9 по сезону 1013.7 1005.8 5
13 22.05 0 50 км в посл. час дождь н/о +12.8 +8.4 75 1013.2 1005.4
14 22.05 0 13 км в посл. час дождь н/о +12.4 +9.7 84 1013.0 1005.2
15 22.05 0 35 км слаб. ливневой дождь н/о +12.9 +9.9 82 1012.7 1004.9
16 22.05 0 50 км в посл. час дождь н/о +12.8 +9.2 79 1012.4 1004.6
17 22.05 0 45 км в посл. час дождь н/о +12.5 +7.8 73 1012.5 1004.6
18 22.05 0 50 км в посл. час дождь н/о +11.6 +7.6 76 1012.4 1004.6 +13.6 5
19 22.05 0 50 км н/о +11.3 +7.9 80 1012.3 1004.4
20 22.05 0 50 км н/о +10.9 +6.6 75 1012.2 1004.3
21 22.05 0 50 км н/о +10.7 +7.0 78 1012.1 1004.2
22 22.05 0 50 км н/о +10.4 +6.8 78 1011.8 1003.9
23 22.05 0 50 км н/о +10.3 +6.7 78 1011.5 1003.6
00 23.05 0 50 км н/о +10.1 +7.0 81 1011.2 1003.4
01 23.05 0 50 км н/о +10.0 +6.9 81 1011.1 1003.2
02 23.05 0 50 км н/о +10.1 +6.7 79 1010.9 1003.0
03 23.05 0 50 км н/о +10.1 +6.6 79 1010.7 1002.8
04 23.05 0 50 км н/о +10.2 +6.7 79 1010.4 1002.6
05 23.05 0 50 км н/о +10.4 +6.6 77 1010.4 1002.5
06 23.05 0 45 км н/о +10.6 +6.7 77 1010.2 1002.4 +9.9
07 23.05 0 50 км н/о +11.0 +7.0 76 1010.0 1002.2
08 23.05 0 50 км н/о +11.4 +6.8 73 1010.0 1002.2
09 23.05 0 50 км н/о +11.8 +6.8 71 1010.1 1002.3
10 23.05 З 7 50 км н/о +12.1 +6.6 69 +9 +9 тепло 1009.8 1001.9
11 23.05 З 7 45 км н/о +12.5 +6.9 69 +10 +10 тепло 1009.4 1001.6

 

Местоположение метеостанции Абердин (Великобритания): широта 57.20 долгота -2.22 высота над уровнем моря 69 м.

В архиве по умолчанию представлена погода в Абердине за последнюю неделю. Архивные данные за месяц целиком и за предыдущие месяцы, начиная с января 2011 года, Вы можете получить, выбрав интересующий диапазон дат из раскрывающегося списка и нажав кнопку "Ввод!".


*Определитесь, кто Вы:
робот инопланетянин человек

Внимание! Время в таблицах - всемирное. Для получения местного времени необходимо прибавить поправку, которая равна 0 ч.

Смотрите также архив погоды в соседних городах и на ближайших метеорологических станциях:

Погода в Инвербери (Великобритания) (39 км)
Погода в Абойне (Великобритания) (39 км)
Погода на Кэрнуэлле (Великобритания) (81 км)
Погода на Кайрнгорме (Великобритания) (86 км)
Погода в Лоссимуте (Великобритания) (88 км)
Погода в Кинлоссе (Великобритания) (95 км)
Погода на Авморе (Великобритания) (97 км)
Погода в Леучарсе (Великобритания) (97 км)
Погода в Тейн-Рендже (Великобритания) (125 км)
Погода в Страталлане (Великобритания) (134 км)

Пояснения к столбцам:

Ветер - указаны скорость ветра в м/с - средняя за 10 мин, порывы в срок и между сроками (в фигурных скобках) и направление, откуда дует ветер: С - северный, СВ - северо-восточный, В - восточный, ЮВ - юго-восточный, Ю - южный, ЮЗ - юго-западный, З - западный, СЗ - северо-западный.
Видимость - горизонтальная дальность видимости в метрах или километрах. При видимости от 1 до 10 км при отсутствии осадков обычно наблюдается дымка, при ухудшении видимости до 1 км и менее - туман. В сухую погоду видимость может ухудшаться дымом, пылью или мглою.
Явления - указаны атмосферные явления, наблюдавшиеся в срок или в последний час перед сроком; фигурными скобками обозначены явления, наблюдавшиеся между сроками (за 1-3 часа до срока); квадратными скобками обозначены град или гололедные отложения с указанием их диаметра в мм.
Облачность - указаны через наклонную черту общая и нижняя облачность в баллах и высота нижней границы облаков в метрах; квадратными скобками обозначены формы облаков: Ci - перистые, Cs - перисто-слоистые, Cc - перисто-кучевые, Ac - высококучевые, As - высокослоистые, Sc - слоисто-кучевые, Ns - слоисто-дождевые, Cu - кучевые, Cb - кучево-дождевые. Подробнее классификацию облаков см. в Атласе облаков (PDF).
T - Температура воздуха - температура, измеренная на высоте 2 м над землей.
Td - Температура точки росы - температура, при понижении до которой содержащийся в воздухе водяной пар достигнет насыщения.
f - Относительная влажность воздуха - влажноcть воздуха, измеренная на высоте 2 м над землей.
Te - Эффективная температура - температура, которую ощущает одетый по сезону человек в тени. Характеристика душности погоды. При расчете учитывается влияние влажности воздуха и скорости ветра на теплоощущения человека.
Tes - Эффективная температура на солнце - температура, которую ощущает человек, с поправкой на солнечный нагрев. Характеристика знойности погоды. Зависит от высоты солнца над горизонтом, облачности и скорости ветра. Ночью, в пасмурную погоду, а также при ветре 12 м/с и более поправка равна нулю.
P - Атмосферное давление - приведенное к уровню моря атмосферное давление.
Po - Атмосферное давление - измеренное на уровне метеостанции атмосферное давление.
Tmin - Минимальная температура - минимум температуры воздуха на высоте 2 м над землей.
Tmax - Максимальная температура - максимум температуры воздуха на высоте 2 м над землей.
R - Количество осадков - Количество выпавших осадков за период времени, мм. При наведении курсора мыши на число - период времени, за который выпало указанное количество осадков.
R24 - Количество осадков - Количество выпавших осадков за 24 часа, мм.
S - Снежный покров - Высота снежного покрова, см. При наведении курсора мыши на число - состояние снежного покрова и степень покрытия местности в баллах.